Location: Brunnen
(48.6541°N, 10.9920°E)
Time: 07:27:47
(UTC+00:00)

STARLINK-60 - Pass Details

Date: 01 June 2020
Orbit: 383 x 390 km, 53.0° (Epoch: 07 July)

Event Time Altitude Azimuth Distance (km) Brightness Sun altitude
Exits shadow 21:16:24 27° 115° (ESE) 783 4.0 -14.4°
Drops below altitude 10° 21:18:31 10° 79° (E) 1,417 5.6 -14.6°
Sets 21:20:43 0° 68° (ENE) 2,279 6.7 -14.7°
